Hourly Weather Liverpool

Today, 28 September, Monday

Time Temperature Precipitation Wind Pressure Humidity
00:00 +19°C° 0 mm 5 mps 762 mmHg 96%
01:00 +19°C° 0 mm 4 mps 762 mmHg 97%
02:00 +19°C° 0 mm 4 mps 762 mmHg 98%
03:00 +18°C° 0 mm 4 mps 762 mmHg 98%
04:00 +18°C° 0 mm 4 mps 762 mmHg 98%
05:00 +18°C° 0 mm 4 mps 762 mmHg 98%
06:00 +19°C° 0 mm 4 mps 762 mmHg 97%
07:00 +20°C° 0 mm 4 mps 763 mmHg 95%
08:00 +20°C° 0 mm 4 mps 763 mmHg 93%
09:00 +21°C° 0 mm 4 mps 763 mmHg 87%
10:00 +23°C° 0 mm 5 mps 763 mmHg 80%
11:00 +25°C° 0 mm 5 mps 763 mmHg 73%
12:00 +25°C° 0 mm 5 mps 763 mmHg 73%
13:00 +24°C° 0 mm 6 mps 763 mmHg 73%
14:00 +24°C° 0 mm 6 mps 763 mmHg 73%
15:00 +23°C° 0 mm 6 mps 763 mmHg 78%
16:00 +23°C° 0 mm 5 mps 762 mmHg 82%
17:00 +22°C° 0 mm 5 mps 762 mmHg 87%
18:00 +21°C° 0 mm 5 mps 763 mmHg 91%
19:00 +20°C° 0 mm 5 mps 763 mmHg 94%
20:00 +19°C° 0 mm 5 mps 763 mmHg 97%
21:00 +20°C° 0 mm 5 mps 763 mmHg 97%
22:00 +20°C° 0 mm 5 mps 762 mmHg 96%
23:00 +20°C° 0 mm 6 mps 762 mmHg 96%

Tomorrow, 29 September, Tuesday

Time Temperature Precipitation Wind Pressure Humidity
00:00 +20°C° 0 mm 6 mps 762 mmHg 96%
01:00 +20°C° 0 mm 6 mps 762 mmHg 95%
02:00 +20°C° 0 mm 6 mps 762 mmHg 95%
03:00 +20°C° 0 mm 6 mps 762 mmHg 95%
04:00 +20°C° 0 mm 6 mps 762 mmHg 95%
05:00 +20°C° 0 mm 6 mps 761 mmHg 95%
06:00 +20°C° 0.5 mm 6 mps 762 mmHg 96%
07:00 +20°C° 0.5 mm 5 mps 762 mmHg 96%
08:00 +20°C° 0.5 mm 5 mps 762 mmHg 97%
09:00 +20°C° 0.4 mm 5 mps 762 mmHg 97%
10:00 +20°C° 0.4 mm 5 mps 762 mmHg 96%
11:00 +20°C° 0.4 mm 5 mps 761 mmHg 96%
12:00 +20°C° 0.3 mm 5 mps 762 mmHg 96%
13:00 +21°C° 0.3 mm 5 mps 762 mmHg 96%
14:00 +21°C° 0.3 mm 5 mps 762 mmHg 96%
15:00 +21°C° 0.1 mm 5 mps 761 mmHg 96%
16:00 +21°C° 0.1 mm 5 mps 761 mmHg 95%
17:00 +21°C° 0.1 mm 5 mps 760 mmHg 94%
18:00 +21°C° 0.1 mm 5 mps 761 mmHg 95%
19:00 +20°C° 0.1 mm 5 mps 761 mmHg 95%
20:00 +20°C° 0.1 mm 5 mps 761 mmHg 96%
21:00 +20°C° 0 mm 5 mps 761 mmHg 96%
22:00 +20°C° 0 mm 5 mps 761 mmHg 96%
23:00 +20°C° 0 mm 5 mps 760 mmHg 96%

Day after tomorrow, 30 September, Wednesday

Time Temperature Precipitation Wind Pressure Humidity
00:00 +20°C° 0 mm 5 mps 760 mmHg 96%
01:00 +20°C° 0 mm 5 mps 760 mmHg 96%
02:00 +20°C° 0 mm 5 mps 760 mmHg 96%
03:00 +20°C° 0 mm 5 mps 760 mmHg 96%
04:00 +20°C° 0 mm 5 mps 759 mmHg 95%
05:00 +20°C° 0 mm 5 mps 759 mmHg 95%
06:00 +20°C° 0 mm 6 mps 759 mmHg 94%
07:00 +21°C° 0 mm 6 mps 759 mmHg 93%
08:00 +21°C° 0 mm 7 mps 758 mmHg 92%
09:00 +21°C° 0.2 mm 7 mps 758 mmHg 93%
10:00 +21°C° 0.2 mm 8 mps 758 mmHg 94%
11:00 +21°C° 0.2 mm 9 mps 758 mmHg 95%
12:00 +22°C° 0.1 mm 9 mps 757 mmHg 93%
13:00 +22°C° 0.1 mm 8 mps 757 mmHg 92%
14:00 +23°C° 0.1 mm 8 mps 757 mmHg 90%
15:00 +23°C° 0.1 mm 8 mps 756 mmHg 90%
16:00 +23°C° 0.1 mm 8 mps 756 mmHg 90%
17:00 +22°C° 0.1 mm 8 mps 756 mmHg 90%
18:00 +22°C° 0.1 mm 8 mps 756 mmHg 91%
19:00 +22°C° 0.1 mm 8 mps 756 mmHg 91%
20:00 +22°C° 0.1 mm 8 mps 756 mmHg 92%
21:00 +22°C° 0.2 mm 7 mps 756 mmHg 92%
22:00 +22°C° 0.2 mm 7 mps 756 mmHg 92%
23:00 +22°C° 0.2 mm 7 mps 756 mmHg 93%

1 October, Thursday

Time Temperature Precipitation Wind Pressure Humidity
00:00 +22°C° 0.5 mm 7 mps 755 mmHg 94%
01:00 +22°C° 0.5 mm 7 mps 755 mmHg 95%
02:00 +21°C° 0.5 mm 6 mps 755 mmHg 96%
03:00 +21°C° 1.7 mm 7 mps 755 mmHg 96%
04:00 +21°C° 1.7 mm 7 mps 754 mmHg 97%
05:00 +21°C° 1.7 mm 7 mps 754 mmHg 97%
06:00 +21°C° 1.4 mm 8 mps 753 mmHg 97%
07:00 +21°C° 1.4 mm 9 mps 753 mmHg 96%
08:00 +21°C° 1.4 mm 10 mps 752 mmHg 96%
09:00 +22°C° 0.1 mm 10 mps 751 mmHg 94%
10:00 +22°C° 0.1 mm 11 mps 751 mmHg 92%
11:00 +22°C° 0.1 mm 12 mps 750 mmHg 91%
12:00 +22°C° 0.6 mm 11 mps 750 mmHg 87%
13:00 +22°C° 0.6 mm 11 mps 750 mmHg 83%
14:00 +22°C° 0.6 mm 10 mps 750 mmHg 79%
15:00 +21°C° 0 mm 9 mps 751 mmHg 78%
16:00 +20°C° 0 mm 7 mps 751 mmHg 77%
17:00 +20°C° 0 mm 6 mps 752 mmHg 75%
18:00 +17°C° 0 mm 5 mps 753 mmHg 80%
19:00 +15°C° 0 mm 4 mps 754 mmHg 85%
20:00 +14°C° 0 mm 4 mps 755 mmHg 90%
21:00 +13°C° 0 mm 3 mps 755 mmHg 93%
22:00 +13°C° 0 mm 3 mps 756 mmHg 95%
23:00 +12°C° 0 mm 3 mps 756 mmHg 97%

2 October, Friday

Time Temperature Precipitation Wind Pressure Humidity
00:00 +12°C° 0 mm 3 mps 756 mmHg 97%
01:00 +11°C° 0 mm 3 mps 756 mmHg 97%
02:00 +12°C° 0 mm 2 mps 756 mmHg 97%
03:00 +12°C° 0 mm 2 mps 756 mmHg 96%
04:00 +12°C° 0 mm 2 mps 756 mmHg 95%
05:00 +12°C° 0 mm 1 mps 757 mmHg 95%
06:00 +13°C° 0 mm 2 mps 757 mmHg 91%
07:00 +13°C° 0 mm 3 mps 757 mmHg 88%
08:00 +15°C° 0 mm 4 mps 757 mmHg 84%
09:00 +17°C° 0 mm 4 mps 757 mmHg 78%
10:00 +17°C° 0 mm 5 mps 757 mmHg 73%
11:00 +20°C° 0 mm 5 mps 757 mmHg 67%
12:00 +20°C° 0 mm 6 mps 757 mmHg 64%
13:00 +21°C° 0 mm 6 mps 757 mmHg 60%
14:00 +21°C° 0 mm 6 mps 757 mmHg 57%
15:00 +20°C° 0 mm 6 mps 757 mmHg 59%
16:00 +19°C° 0 mm 5 mps 757 mmHg 61%
17:00 +17°C° 0 mm 5 mps 757 mmHg 63%
18:00 +17°C° 0 mm 4 mps 758 mmHg 70%
19:00 +14°C° 0 mm 4 mps 758 mmHg 76%
20:00 +12°C° 0 mm 3 mps 759 mmHg 82%
21:00 +12°C° 0 mm 3 mps 759 mmHg 86%
22:00 +12°C° 0 mm 3 mps 759 mmHg 90%
23:00 +11°C° 0 mm 3 mps 759 mmHg 93%

3 October, Saturday

Time Temperature Precipitation Wind Pressure Humidity
00:00 +11°C° 0 mm 3 mps 760 mmHg 94%
01:00 +11°C° 0 mm 3 mps 760 mmHg 95%
02:00 +11°C° 0 mm 3 mps 760 mmHg 95%
03:00 +12°C° 0 mm 2 mps 760 mmHg 95%
04:00 +10°C° 0 mm 2 mps 760 mmHg 95%
05:00 +10°C° 0 mm 2 mps 760 mmHg 95%
06:00 +12°C° 0 mm 2 mps 761 mmHg 90%
07:00 +13°C° 0 mm 2 mps 761 mmHg 86%
08:00 +14°C° 0 mm 1 mps 762 mmHg 82%
09:00 +16°C° 0 mm 2 mps 762 mmHg 73%
10:00 +18°C° 0 mm 3 mps 762 mmHg 64%
11:00 +20°C° 0 mm 4 mps 762 mmHg 55%
12:00 +19°C° 0 mm 4 mps 762 mmHg 56%
13:00 +19°C° 0 mm 5 mps 761 mmHg 57%
14:00 +19°C° 0 mm 5 mps 761 mmHg 58%
15:00 +17°C° 0 mm 5 mps 761 mmHg 61%
16:00 +17°C° 0 mm 4 mps 761 mmHg 64%
17:00 +15°C° 0 mm 4 mps 761 mmHg 67%
18:00 +14°C° 0 mm 4 mps 762 mmHg 72%
19:00 +13°C° 0 mm 4 mps 762 mmHg 77%
20:00 +12°C° 0 mm 3 mps 762 mmHg 82%
21:00 +11°C° 0 mm 3 mps 762 mmHg 86%
22:00 +10°C° 0 mm 2 mps 763 mmHg 91%
23:00 +9°C° 0 mm 2 mps 763 mmHg 95%
Show more